#timestamp,LO_Frequency,Hit,Temp,Hum 
1478311215.0,286047000.3,N,0.0,0.0
1478311215.9,286047000.3,N,0.0,0.0
1478311235.8,286047000.7,N,0.0,0.0
1478311255.6,286046998.5,N,0.0,0.0
1478311275.4,286046997.9,N,0.0,0.0
1478311295.3,286046999.2,N,0.0,0.0
1478311315.1,286047002.4,N,0.0,0.0
1478311316.0,286047002.4,N,0.0,0.0
1478311335.8,286046999.9,N,0.0,0.0
1478311355.7,286047000.1,N,0.0,0.0
1478311375.5,286046998.4,N,0.0,0.0
1478311395.3,286047000.6,N,0.0,0.0
1478311415.1,286046999.0,N,0.0,0.0
1478311435.9,286046996.5,N,0.0,0.0
1478311455.7,286046998.7,N,0.0,0.0
1478311475.5,286047000.8,N,0.0,0.0
1478311495.4,286047000.7,N,0.0,0.0
1478311515.2,286047000.1,N,0.0,0.0
1478311535.0,286047001.0,N,0.0,0.0
1478311535.9,286047001.0,N,0.0,0.0
1478311555.8,286046998.5,N,0.0,0.0
1478311575.6,286047002.8,N,0.0,0.0
1478311595.4,286047002.6,N,0.0,0.0
1478311615.3,286047001.4,N,0.0,0.0
1478311635.1,286047001.7,N,0.0,0.0
1478311636.0,286047001.7,N,0.0,0.0
1478311655.8,286047003.4,N,0.0,0.0
1478311675.7,286047001.8,N,0.0,0.0
1478311695.5,286047003.9,N,0.0,0.0
1478311715.3,286047001.3,N,0.0,0.0
1478311735.2,286047000.6,N,0.0,0.0
1478311755.9,286047000.0,N,0.0,0.0
1478311775.7,286047002.5,N,0.0,0.0
1478311795.6,286047001.4,N,0.0,0.0
1478311815.4,286047001.7,N,0.0,0.0
1478311835.2,286047003.6,N,0.0,0.0
1478311855.0,286047004.1,N,0.0,0.0
1478311856.0,286047004.1,N,0.0,0.0
1478311875.8,286047003.0,N,0.0,0.0
1478311895.6,286046998.3,N,0.0,0.0
1478311915.4,286047002.1,N,0.0,0.0
1478311935.3,286047001.7,N,0.0,0.0
1478311955.1,286047001.1,N,0.0,0.0
1478311975.8,286047000.3,N,0.0,0.0
1478311995.7,286047001.7,N,0.0,0.0
1478312015.5,286047004.3,N,0.0,0.0
1478312035.3,286047001.4,N,0.0,0.0
1478312055.2,286047001.4,N,0.0,0.0
1478312075.9,286047003.9,N,0.0,0.0
1478312095.7,286047005.8,N,0.0,0.0
1478312115.6,286047005.6,N,0.0,0.0
1478312135.4,286047004.8,N,0.0,0.0
1478312155.2,286047003.6,N,0.0,0.0
1478312175.1,286047002.9,N,0.0,0.0
1478312176.0,286047002.9,N,0.0,0.0
1478312195.8,286047005.6,N,0.0,0.0
1478312215.6,286047005.9,N,0.0,0.0
1478312235.5,286047005.2,N,0.0,0.0
1478312255.3,286047002.9,N,0.0,0.0
1478312275.1,286047005.1,N,0.0,0.0
1478312295.8,286047004.9,N,0.0,0.0
1478312315.7,286047005.6,N,0.0,0.0
1478312335.5,286047004.0,N,0.0,0.0
1478312355.3,286047006.0,N,0.0,0.0
1478312375.2,286047003.4,N,0.0,0.0
1478312395.0,286047003.1,N,0.0,0.0
1478312395.9,286047003.1,N,0.0,0.0
1478312415.7,286047007.2,N,0.0,0.0
1478312435.6,286047007.6,N,0.0,0.0
1478312455.4,286047005.4,N,0.0,0.0
1478312475.2,286047003.7,N,0.0,0.0
1478312495.1,286047003.4,N,0.0,0.0
1478312496.0,286047003.4,N,0.0,0.0
1478312515.8,286047004.4,N,0.0,0.0
1478312535.6,286047003.7,N,0.0,0.0
1478312555.5,286047005.2,N,0.0,0.0
1478312575.3,286047004.5,N,0.0,0.0
1478312595.1,286047005.5,N,0.0,0.0
1478312615.9,286047007.1,N,0.0,0.0
1478312635.7,286047006.5,N,0.0,0.0
1478312655.5,286047006.9,N,0.0,0.0
1478312675.4,286047006.5,N,0.0,0.0
1478312695.2,286047005.6,N,0.0,0.0
1478312715.0,286047005.0,N,0.0,0.0
1478312715.9,286047005.0,N,0.0,0.0
1478312735.8,286047009.2,Y,0.0,0.0
1478312755.6,286047004.8,N,0.0,0.0
1478312775.4,286047004.8,N,0.0,0.0
1478312795.3,286047007.1,N,0.0,0.0
1478312815.1,286047007.2,N,0.0,0.0
1478312816.0,286047007.2,N,0.0,0.0
1478312835.8,286047003.4,N,0.0,0.0
1478312855.7,286047005.5,N,0.0,0.0
1478312875.5,286047005.0,N,0.0,0.0
1478312895.3,286047004.0,N,0.0,0.0
1478312915.1,286047002.9,N,0.0,0.0
1478312935.9,286047002.0,N,0.0,0.0
1478312955.7,286047004.2,N,0.0,0.0
1478312975.5,286047003.4,N,0.0,0.0
1478312995.4,286047007.5,N,0.0,0.0
1478313015.2,286047002.9,N,0.0,0.0
1478313035.0,286047005.0,N,0.0,0.0
1478313035.9,286047005.0,N,0.0,0.0
1478313055.8,286047007.5,N,0.0,0.0
1478313075.6,286047004.5,N,0.0,0.0
1478313095.4,286047004.6,N,0.0,0.0
1478313115.3,286047005.1,N,0.0,0.0
1478313135.1,286047003.7,N,0.0,0.0
1478313136.0,286047003.7,N,0.0,0.0
1478313155.8,286046999.7,N,0.0,0.0
1478313175.7,286047003.9,N,0.0,0.0
1478313195.5,286047002.9,N,0.0,0.0
1478313215.3,286047006.0,N,0.0,0.0
1478313235.2,286047007.6,Y,0.0,0.0
1478313255.9,286047003.5,N,0.0,0.0
1478313275.7,286047005.1,N,0.0,0.0
1478313295.6,286047005.3,N,0.0,0.0
1478313315.4,286047003.2,N,0.0,0.0
1478313335.2,286047004.5,N,0.0,0.0
1478313355.1,286047002.5,N,0.0,0.0
1478313356.0,286047002.5,N,0.0,0.0
1478313375.8,286047000.0,N,0.0,0.0
1478313395.6,286047000.9,N,0.0,0.0
1478313415.5,286047002.8,N,0.0,0.0
1478313435.3,286047004.3,N,0.0,0.0
1478313455.1,286047001.5,N,0.0,0.0
1478313475.8,286047001.9,N,0.0,0.0
1478313495.7,286047005.6,N,0.0,0.0
1478313515.5,286047005.0,N,0.0,0.0
1478313535.3,286046998.7,N,0.0,0.0
1478313555.2,286047002.3,N,0.0,0.0
1478313575.0,286047001.1,N,0.0,0.0
1478313575.9,286047001.1,N,0.0,0.0
1478313595.7,286047003.9,N,0.0,0.0
1478313615.6,286047002.2,N,0.0,0.0
1478313635.4,286047003.6,N,0.0,0.0
1478313655.2,286046998.4,N,0.0,0.0
1478313675.1,286047008.7,Y,0.0,0.0
1478313676.0,286047008.7,Y,0.0,0.0
1478313695.8,286047000.6,N,0.0,0.0
1478313715.7,286046998.2,N,0.0,0.0
1478313735.5,286046998.8,N,0.0,0.0
1478313755.3,286046995.8,N,0.0,0.0
1478313775.1,286046996.3,N,0.0,0.0
1478313795.9,286046997.7,N,0.0,0.0
1478313815.7,286046994.7,N,0.0,0.0
1478313835.5,286046994.2,N,0.0,0.0
1478313855.4,286046991.8,N,0.0,0.0
1478313875.2,286046993.4,N,0.0,0.0
1478313895.0,286046995.4,N,0.0,0.0
1478313895.9,286046995.4,N,0.0,0.0
1478313915.8,286046995.8,N,0.0,0.0
1478313935.6,286046997.7,N,0.0,0.0
1478313955.4,286046996.5,N,0.0,0.0
1478313975.3,286046998.5,N,0.0,0.0
1478313995.1,286047000.2,N,0.0,0.0
1478313996.0,286047000.2,N,0.0,0.0
1478314015.8,286047000.9,N,0.0,0.0
1478314035.7,286047000.5,N,0.0,0.0
1478314055.5,286047002.8,N,0.0,0.0
1478314075.3,286047000.7,N,0.0,0.0
1478314095.2,286046998.5,N,0.0,0.0
1478314115.9,286046999.2,N,0.0,0.0
1478314135.7,286046998.0,N,0.0,0.0
1478314155.6,286046996.4,N,0.0,0.0
1478314175.4,286046986.0,Y,0.0,0.0
1478314195.2,286047007.3,N,0.0,0.0
1478314215.1,286046996.4,N,0.0,0.0
1478314216.0,286046996.4,N,0.0,0.0
1478314235.8,286046988.6,N,0.0,0.0
1478314255.6,286046993.1,N,0.0,0.0
1478314275.5,286046994.0,N,0.0,0.0
1478314295.3,286046993.3,N,0.0,0.0
1478314315.1,286046996.2,N,0.0,0.0
1478314335.8,286046997.1,N,0.0,0.0
1478314355.7,286046994.9,N,0.0,0.0
1478314375.5,286046995.1,N,0.0,0.0
1478314395.4,286046985.1,Y,0.0,0.0
1478314415.2,286046986.8,N,0.0,0.0
1478314435.0,286047003.7,N,0.0,0.0
1478314435.9,286047003.7,N,0.0,0.0
1478314455.8,286046996.3,N,0.0,0.0
1478314475.6,286046997.8,N,0.0,0.0
1478314495.4,286046992.9,N,0.0,0.0
1478314515.2,286046992.2,N,0.0,0.0
1478314535.1,286046991.2,N,0.0,0.0
1478314536.0,286046991.2,N,0.0,0.0
1478314555.8,286046993.1,N,0.0,0.0
1478314575.6,286046987.0,N,0.0,0.0
1478314595.5,286046989.9,N,0.0,0.0
1478314615.3,286046992.9,N,0.0,0.0
1478314635.1,286046993.6,N,0.0,0.0
1478314655.9,286046993.3,N,0.0,0.0
1478314675.7,286046996.1,N,0.0,0.0
1478314695.5,286046993.5,N,0.0,0.0
1478314715.4,286046990.8,N,0.0,0.0
1478314735.2,286046994.5,N,0.0,0.0
1478314755.0,286046991.7,N,0.0,0.0
1478314755.9,286046991.7,N,0.0,0.0
1478314775.8,286046993.7,N,0.0,0.0
1478314795.6,286046996.1,N,0.0,0.0
